Theta_e
307 315 330 342 348 350 349 348 348 347 347 348 348 348 348 349 351 352 352 352 352 352 351 349 348 347 346 347 346 347 348 347 346 346 344 342 340 341 341 342 344 341 345
306 315 327 335 344 347 348 348 346 350 349 348 347 348 348 348 349 350 351 352 351 350 349 348 347 345 345 346 346 347 347 346 344 343 342 342 343 342 341 342 343 341 346
307 314 319 330 333 340 342 346 347 347 347 348 348 347 347 348 347 349 349 350 351 349 348 346 345 343 344 344 343 345 344 344 342 341 339 331 333 341 341 342 344 345 346
307 313 319 326 326 327 332 337 341 345 347 348 349 348 348 348 347 347 347 348 349 347 346 346 344 343 342 341 342 344 342 341 340 337 329 331 335 341 341 342 344 345 345
303 310 317 323 323 323 323 327 331 337 343 346 348 348 348 348 348 348 348 347 348 347 346 345 344 342 342 341 342 342 342 340 337 329 325 325 329 340 343 343 344 345 343
301 305 311 318 320 321 321 322 322 329 335 339 344 346 347 350 350 348 348 348 348 347 346 345 344 344 343 343 343 343 342 339 333 321 322 326 327 341 343 342 343 343 342
299 302 304 314 316 317 319 321 321 321 324 330 334 342 345 346 347 348 348 348 347 346 346 346 345 344 343 343 343 342 340 336 321 319 319 323 325 340 342 341 342 342 342
299 301 302 306 310 312 314 316 318 319 320 323 326 331 338 343 344 346 346 346 346 345 346 345 344 344 342 342 342 341 337 329 321 319 319 322 327 340 341 341 341 341 341
298 299 298 299 302 305 308 311 312 314 317 320 322 324 327 333 340 342 342 343 345 345 345 344 342 342 342 342 341 337 333 327 318 320 321 321 327 338 340 340 340 339 340
297 297 296 296 298 298 299 306 308 309 312 315 319 324 325 328 332 336 336 339 342 343 343 342 341 342 341 341 339 334 329 325 317 319 320 320 329 337 339 339 338 339 338
295 295 295 295 295 296 297 299 303 305 308 309 312 318 322 324 330 334 333 335 339 340 340 340 340 340 337 336 334 331 326 320 316 317 319 325 330 335 336 339 338 338 338
291 293 294 294 294 295 297 296 298 300 302 304 306 310 316 321 323 326 329 328 333 334 337 339 339 336 331 334 332 328 325 319 317 316 319 327 331 334 335 339 338 337 337
291 292 294 293 294 293 294 296 296 297 299 301 303 305 309 316 323 324 333 332 331 325 334 336 335 335 334 332 329 325 321 318 318 318 319 325 331 333 335 338 338 338 336
290 291 292 293 293 293 294 294 294 295 296 297 299 303 305 308 315 317 319 332 332 333 331 333 333 333 332 330 327 323 321 319 317 318 317 321 328 333 335 336 336 336 334
289 290 290 291 291 293 293 293 293 293 294 295 298 301 304 305 308 314 316 317 330 333 332 332 332 332 331 327 325 323 320 318 316 315 315 316 323 331 335 334 334 336 336
290 289 291 291 291 292 292 292 292 293 294 296 297 299 302 303 306 310 315 317 317 329 333 333 332 332 330 328 324 322 321 319 317 315 314 314 320 326 334 337 335 334 335
289 290 290 290 292 291 291 292 293 293 295 294 296 298 300 302 302 305 309 314 315 316 317 333 332 332 329 327 324 322 321 319 318 316 314 314 315 320 326 334 335 335 334
288 288 289 291 290 291 291 291 291 292 294 295 296 298 299 301 302 303 305 308 315 319 317 317 330 329 328 325 324 321 320 319 317 316 314 314 315 317 321 327 332 334 335
287 287 288 289 289 289 290 290 291 292 292 293 294 294 297 300 302 303 304 307 314 319 320 320 324 328 326 325 324 322 320 318 318 316 314 314 315 316 317 321 323 325 331
286 286 286 287 288 288 289 289 290 292 292 293 293 294 297 299 302 302 304 307 312 313 316 322 324 326 327 326 324 322 319 319 318 316 314 314 315 316 317 317 319 320 321
286 286 286 286 286 287 286 286 287 287 291 291 293 295 296 297 299 302 303 305 308 308 309 319 323 324 324 324 320 314 314 317 315 316 315 313 313 315 315 316 316 316 318
284 284 285 285 285 286 286 287 288 290 290 291 293 295 296 297 298 299 301 304 306 308 312 316 320 322 322 324 319 314 308 310 312 314 314 313 313 314 313 315 314 314 315
283 283 284 284 285 285 286 288 288 290 290 290 292 294 296 298 299 299 300 303 306 309 310 314 318 320 319 320 319 313 306 307 310 312 313 313 312 311 312 313 314 315 315
283 283 283 284 284 285 286 286 287 286 286 289 291 293 295 298 298 300 302 303 306 309 310 311 316 319 321 318 319 318 314 312 308 305 310 311 312 310 311 312 312 313 314
283 282 282 283 283 284 286 287 285 286 288 290 291 292 294 297 298 299 300 303 307 310 310 311 312 317 319 318 318 317 315 311 312 309 305 308 309 311 312 311 311 311 311
282 282 282 281 282 283 284 286 285 285 287 288 289 289 293 295 298 299 301 303 308 309 310 312 313 315 318 319 319 319 317 312 309 309 308 308 309 311 312 311 311 310 311
Wind_Speed
6 11 19 21 16 15 9 6 4 4 5 6 7 7 6 8 8 9 11 11 10 12 13 13 11 10 9 11 11 11 11 12 11 12 12 10 12 12 9 6 5 3 12
5 8 14 19 20 18 15 7 8 7 6 6 7 7 8 8 9 10 10 11 11 12 12 12 11 10 9 9 10 11 12 11 9 9 9 9 11 11 7 7 6 6 12
6 7 10 18 21 22 19 20 8 8 9 9 8 7 8 9 9 10 11 10 11 13 12 11 10 10 11 9 9 12 14 14 11 10 8 4 4 9 8 8 9 11 13
6 8 10 18 21 21 21 20 22 14 10 10 10 10 9 10 11 12 11 10 11 13 13 13 12 12 12 10 11 14 14 14 12 11 5 4 3 9 10 10 10 12 14
8 8 12 21 23 23 21 19 19 19 20 12 12 12 12 12 12 13 12 11 11 13 14 14 13 14 13 12 11 13 13 13 12 8 6 3 2 8 12 10 10 12 13
8 9 14 21 23 23 23 22 19 18 20 19 15 13 14 13 12 13 13 12 12 13 14 15 14 14 14 14 13 15 14 14 8 7 5 5 4 9 12 9 8 10 10
7 7 9 21 22 23 24 23 23 22 19 19 20 18 15 15 14 14 15 14 14 14 14 14 15 15 15 15 14 15 16 11 6 6 5 4 4 9 11 11 9 9 12
6 6 8 14 20 22 22 22 24 24 22 20 19 20 20 16 16 16 16 16 16 15 14 15 15 16 16 15 14 15 12 11 7 6 6 5 7 8 12 12 10 8 12
7 7 7 8 12 17 19 20 24 24 24 22 20 19 20 19 17 17 16 17 16 16 15 15 15 16 16 17 16 13 10 12 7 5 5 4 9 10 10 10 9 7 6
6 6 7 7 8 10 8 15 21 22 23 23 19 17 16 18 14 15 13 14 18 18 17 16 15 16 18 18 16 13 12 11 6 6 5 4 11 13 11 10 9 9 6
5 5 6 7 6 7 9 11 15 18 20 20 17 15 12 8 12 9 11 12 15 18 17 17 16 17 18 15 14 13 12 4 6 4 4 10 11 14 16 14 12 11 9
6 6 6 6 6 6 8 7 7 9 8 9 10 12 9 10 8 14 10 14 15 14 15 17 17 14 12 7 7 10 5 6 5 4 4 12 14 14 16 15 16 15 13
3 5 7 6 6 6 5 6 4 5 5 6 9 9 10 9 6 6 7 5 7 9 6 9 10 8 9 7 6 5 5 5 4 4 5 12 14 16 18 17 19 17 13
6 6 7 7 6 6 4 4 5 6 5 6 8 10 8 6 8 6 5 9 7 6 8 8 6 9 10 9 9 8 8 6 4 4 4 11 12 17 19 18 14 17 14
4 5 6 7 7 7 5 4 7 7 6 7 7 8 7 7 8 8 7 6 9 7 8 8 8 9 10 11 10 10 10 9 6 4 3 10 12 14 20 19 18 17 18
6 7 6 7 7 6 7 8 8 7 7 7 7 7 9 7 7 8 8 7 6 8 9 9 10 11 11 10 11 11 11 9 9 7 4 5 12 13 15 19 19 20 20
6 7 7 7 6 7 9 8 8 8 9 8 7 9 10 9 9 9 8 8 7 5 10 11 11 10 10 10 13 11 10 11 9 8 6 5 5 11 12 17 19 18 19
6 8 8 9 11 8 7 9 9 9 8 8 8 8 10 11 10 9 8 8 7 7 6 8 10 11 11 11 10 11 10 10 11 9 6 6 5 5 8 16 18 18 18
6 7 9 10 10 11 11 10 10 11 9 8 9 9 12 12 11 10 8 8 9 6 6 7 9 10 9 12 12 11 10 10 11 8 9 8 8 6 5 9 12 11 13
6 7 8 10 11 12 10 10 7 8 8 8 8 9 11 10 11 10 9 10 8 6 7 8 10 7 10 11 11 10 9 8 8 9 9 7 8 8 7 7 6 8 12
7 10 11 13 13 10 9 9 9 8 9 9 9 13 13 11 13 11 9 10 8 8 9 11 9 12 8 6 6 5 3 2 8 8 7 7 8 8 7 8 6 4 5
10 10 10 12 13 11 9 8 9 10 11 12 12 13 14 14 13 12 12 10 11 8 9 11 10 5 7 12 8 6 4 4 4 4 6 8 10 8 8 9 9 9 7
9 11 12 12 13 12 13 10 8 10 10 11 11 11 10 12 13 14 14 12 11 10 9 9 9 13 8 9 11 7 3 4 4 3 11 9 10 8 8 8 9 10 9
11 10 11 12 12 12 13 11 13 11 12 10 11 12 13 15 14 14 13 13 13 10 10 9 8 10 11 11 8 6 1 6 4 3 4 9 8 9 10 8 9 10 10
11 11 11 11 12 12 12 11 13 12 10 9 10 16 17 15 17 16 14 14 13 10 10 9 9 10 10 9 11 9 6 2 4 5 4 6 6 8 8 9 10 9 10
10 10 10 11 12 12 12 13 15 16 13 11 13 14 13 13 12 13 13 13 13 12 10 8 9 11 9 11 9 11 12 10 8 5 4 4 9 7 10 7 8 8 8
Wind_Direction
331 342 358 2 355 339 289 198 200 192 164 149 148 144 138 136 140 144 152 150 153 149 152 151 149 137 138 165 153 137 131 135 139 137 135 136 139 137 131 134 124 139 138
291 336 1 9 9 9 356 266 207 193 197 188 183 167 165 167 163 161 161 155 157 160 158 154 158 150 148 144 145 148 141 135 126 126 130 141 144 144 138 142 148 168 131
2 355 2 16 21 17 14 5 280 230 223 214 206 197 184 182 185 183 170 170 168 171 172 169 172 171 167 159 163 153 145 134 128 122 109 113 138 161 156 158 166 145 137
9 3 6 17 21 26 20 7 5 336 251 231 224 213 208 198 198 198 192 181 183 183 184 179 180 178 172 176 172 160 154 142 141 131 116 133 168 173 173 168 163 150 140
26 11 16 19 18 20 21 21 5 357 356 274 243 228 219 217 210 205 201 200 196 197 193 191 187 183 176 181 180 165 160 157 151 128 137 164 181 175 164 174 159 151 145
28 16 16 24 21 14 12 13 12 4 357 347 301 250 239 225 222 214 210 208 208 208 202 195 191 186 183 186 184 180 175 160 147 140 149 191 182 181 149 145 134 155 151
29 20 22 22 19 16 9 6 9 5 356 350 338 333 260 244 228 222 219 212 216 214 211 201 191 187 187 186 184 183 176 155 147 149 171 200 214 180 150 140 148 159 156
41 23 24 19 16 9 5 3 2 358 356 347 338 335 330 280 248 233 227 224 219 220 216 213 201 188 189 189 188 174 169 150 150 163 181 195 225 199 155 149 142 160 176
27 32 17 12 11 10 3 0 356 350 348 347 340 330 326 316 290 247 239 228 223 223 221 217 214 198 190 188 186 180 171 157 156 171 174 186 232 189 153 153 148 151 181
24 21 15 12 9 2 355 3 355 349 343 341 334 328 321 317 295 271 239 235 229 226 221 217 217 199 191 184 184 183 172 160 163 170 170 181 218 223 185 167 170 177 176
18 17 16 8 5 0 350 352 348 345 342 337 332 326 316 313 309 278 255 232 232 230 222 218 215 206 193 186 184 186 167 168 169 182 177 181 208 231 218 195 186 184 190
357 352 10 4 358 355 345 340 333 331 328 326 323 322 320 308 306 306 260 242 228 225 223 217 210 200 191 187 193 190 189 173 178 185 188 182 202 220 227 211 196 190 193
312 345 353 352 347 347 334 331 327 323 315 316 316 316 315 308 301 307 282 247 241 229 223 219 211 201 191 182 184 175 187 175 187 190 196 184 204 215 224 217 203 189 183
348 333 334 342 336 327 322 312 312 314 308 306 303 306 309 308 302 299 291 273 230 219 212 204 200 194 189 185 185 181 190 194 185 196 210 192 200 214 225 217 213 214 205
307 316 319 325 319 313 312 308 313 305 298 290 293 292 297 299 299 299 293 294 281 219 211 207 199 191 192 186 188 189 195 199 193 187 199 211 206 215 224 225 223 221 219
324 329 319 311 301 310 317 310 303 298 293 287 285 284 284 285 288 290 287 274 275 285 211 209 203 198 198 191 194 194 198 202 202 195 190 207 220 212 221 226 226 226 225
320 306 296 295 305 311 299 301 307 296 292 287 284 283 279 275 278 279 280 276 268 273 302 208 205 203 199 193 198 196 194 197 201 203 195 196 216 227 220 231 228 230 238
318 313 309 309 307 288 288 296 296 296 286 287 291 287 281 278 273 273 271 268 269 249 255 287 210 204 196 194 199 200 197 192 197 200 196 198 197 210 224 231 232 227 235
308 300 306 313 310 305 299 293 291 287 281 279 286 281 278 274 271 267 264 265 262 253 248 234 264 204 208 201 200 200 199 194 194 188 201 203 198 198 202 215 226 234 240
316 314 311 313 310 308 306 294 285 284 284 281 280 278 280 279 272 267 266 260 250 258 264 254 248 235 222 202 207 198 197 200 188 188 203 202 203 200 204 206 215 232 234
318 320 317 316 316 308 302 299 296 286 289 290 283 277 274 271 267 265 262 260 244 240 244 252 236 225 187 168 145 85 348 173 197 186 191 202 202 199 194 203 208 210 228
315 309 307 302 301 299 296 291 288 292 290 290 287 276 268 268 263 260 259 257 249 239 233 244 246 224 208 183 188 139 162 159 221 199 204 201 206 194 197 204 205 208 212
301 305 306 304 300 299 298 293 293 287 282 288 290 284 270 259 258 252 249 249 246 239 231 232 242 233 219 188 178 146 181 188 138 172 223 217 197 192 202 210 212 216 212
298 297 300 300 298 296 296 290 286 294 290 284 283 284 282 271 266 261 258 246 239 236 229 227 234 237 229 193 192 200 258 135 177 158 211 212 214 203 201 207 212 218 213
303 304 303 296 294 293 290 295 293 285 282 286 285 284 280 275 268 257 250 254 241 229 224 220 228 247 233 224 196 191 193 169 163 141 184 184 204 224 222 220 217 219 206
302 303 300 295 296 304 296 294 290 290 289 292 291 290 279 274 263 249 242 244 235 226 215 216 225 229 238 233 213 198 197 189 183 154 136 173 206 208 203 208 221 217 209